FW3929 Weather Reports


time (UTC)temp
F
wind
direction
speed
knots
gust
knots
rain 1hr
in
rain 24hr
in
rain mn
in
humidity
%
barometer
mb
20260504044524 39 142 2.6 9.6 0.02 0.63 0.02 99 974.8
20260504043019 39 157 3.5 8.7 0.01 0.62 0.01 99 975.2
20260504041534 38 141 2.6 10.4 0.01 0.62 0.01 99 976.1
20260504040019 38 149 3.5 8.7 0.01 0.62 0.01 99 977.1
20260504034509 38 123 0.9 7.8 0.00 0.61 0.00 98 978.5
20260504033108 39 155 4.3 13.0 0.00 0.61 0.00 98 978.4
20260504031503 39 140 5.2 13.0 0.00 0.61 0.00 99 979.3
20260504030159 39 113 1.7 11.3 0.00 0.61 0.00 98 980.6
20260504024556 40 124 4.3 9.6 0.00 0.61 0.61 98 981.2
20260504023053 40 153 2.6 8.7 0.01 0.61 0.61 99 981.7
20260504021553 41 149 3.5 11.3 0.01 0.61 0.61 99 982.7
20260504020053 41 160 4.3 13.9 0.02 0.61 0.61 99 983.1
20260504014545 41 134 0.9 11.3 0.03 0.61 0.61 99 983.7
20260504013056 40 81 3.5 13.9 0.04 0.60 0.60 99 984.3
20260504011541 39 355 2.6 15.6 0.05 0.60 0.60 99 984.9
20260504010041 38 47 4.3 14.8 0.06 0.59 0.59 98 985.7
20260504004535 38 25 5.2 16.5 0.06 0.57 0.57 98 986.5
20260504003033 38 66 8.7 17.4 0.06 0.56 0.56 98 986.9
20260504001535 38 79 7.8 19.1 0.11 0.55 0.55 98 988.0
20260504000027 37 15 7.0 17.4 0.13 0.53 0.53 98 989.2
20260503234529 37 45 7.0 20.0 0.16 0.52 0.52 98 989.0
20260503233024 37 90 6.1 20.9 0.18 0.50 0.50 98 989.7
20260503231525 37 67 7.8 21.7 0.14 0.44 0.44 98 990.7
20260503230034 37 60 7.8 20.9 0.13 0.40 0.40 98 991.8
20260503224516 37 66 7.0 19.1 0.10 0.35 0.35 98 993.0
20260503223013 37 49 4.3 16.5 0.09 0.32 0.32 98 993.9
20260503221509 37 63 3.5 13.9 0.10 0.30 0.30 98 995.3
20260503220009 36 56 6.1 15.6 0.11 0.27 0.27 98 995.6
20260503214605 36 51 4.3 18.2 0.16 0.25 0.25 98 996.1
20260503213005 36 60 6.1 15.6 0.14 0.22 0.22 97 996.5
20260503211503 36 92 4.3 19.1 0.12 0.19 0.19 97 996.3
20260503210100 36 65 5.2 18.2 0.09 0.16 0.16 97 997.4
20260503204619 36 98 7.8 15.6 0.02 0.08 0.08 97 998.1
20260503203100 36 63 5.2 14.8 0.02 0.08 0.08 97 999.0
20260503201553 35 84 7.0 20.9 0.02 0.07 0.07 96 999.6
20260503200049 37 92 7.8 17.4 0.02 0.07 0.07 96 999.9
20260503194547 38 47 5.2 15.6 0.02 0.06 0.06 96 1000.6
20260503193046 38 35 3.5 10.4 0.05 0.06 0.06 95 1001.1
20260503191603 39 64 4.3 16.5 0.05 0.05 0.05 95 1002.4
20260503190041 39 62 2.6 13.0 0.05 0.05 0.05 94 1003.1
20260503184536 39 60 2.6 11.3 0.04 0.04 0.04 92 1004.3
20260503183030 40 87 4.3 11.3 0.01 0.01 0.01 90 1005.4
20260503181541 40 351 4.3 11.3 0.00 0.00 0.00 87 1006.3
20260503180028 41 35 2.6 13.9 0.00 0.00 0.00 87 1006.6
20260503174521 41 55 5.2 10.4 0.00 0.00 0.00 86 1007.5
20260503173019 42 72 4.3 11.3 0.00 0.00 0.00 85 1008.2
20260503171517 43 75 1.7 11.3 0.00 0.00 0.00 85 1008.9
20260503081556 35 278 0.0 0.0 0.00 0.01 0.00 98 1016.2
20260503080103 35 278 0.0 0.0 0.00 0.01 0.00 98 1016.4
20260503071605 35 278 0.0 0.9 0.00 0.01 0.00 98 1016.5